Location: Beaurevoir
(49.9971°N, 3.3085°E)
Time: 14:40:42
(UTC+00:00)

IDEFIX/ARIANE 42P - Pass Details

Date: 23 May 2024
Orbit: 783 x 799 km, 98.5° (Epoch: 19 June)

Event Time Altitude Azimuth Distance (km) Brightness Sun altitude
Rises 01:17:22 0° 17° (NNE) 3,318 7.6 -16.4°
Reaches altitude 10° 01:19:46 10° 22° (NNE) 2,384 6.4 -16.2°
Maximum altitude 01:24:56 56° 101° (E) 953 3.0 -15.9°
Enters shadow 01:28:34 19° 173° (S) 1,807 3.9 -15.6°
